Notices

Due to recent upgrades, we are currently experiencing delays in populating our data report tables. We thank you for your patience during this time of difficulty as we are working in rectifying this issue as soon as possible. If you have any questions or concerns, please contact us.

Hourly Data Report for February 07, 2004

SHERBROOKE A
QUEBEC

45°26'00.000" N
71°41'00.000" W
241.40 m
7028124
71610
YSC

Download Data

Hourly Data (February 2004)
Hourly Data Report for February 7, 2004
TIME
LST
Temp Definition
°C
Dew Point Definition
°C
Rel Hum Definition
%
Precip. Amount Definition
mm

Wind Dir Definition
10's deg

Wind Spd Definition
km/h
Visibility Definition
km
Stn Press Definition
kPa
Hmdx Definition


Wind Chill Definition


Weather Definition


00:00 -3.9 -7.4 77   7 6 11.3 97.53   -7 Snow
01:00 -3.8 -7.3 77   7 4 15.0 97.36   -5  
02:00 -3.8 -7.1 78     0 12.9 97.34      
03:00 -3.8 -6.9 79     0 3.9 97.19     Snow
04:00 -3.5 -6.5 80     0 2.9 97.12     Snow
05:00 -3.4 -6.4 80     0 3.5 97.04      
06:00 -3.4 -6.5 79     0 5.6 97.01      
07:00 -3.3 -6.4 79     0 4.8 96.97      
08:00 -3.2 -6.3 79     0 6.4 96.88     Snow Grains
09:00 -2.8 -6.0 79     0 8.0 96.83     Snow Grains
10:00 -2.0 -5.0 80   26 7 9.7 96.82   -5 Snow
11:00 -3.2 -6.9 76   28 26 12.9 96.82   -10 Snow
12:00 -3.9 -7.0 79   27 17 4.0 96.87   -10 Snow
13:00 -4.7 -8.8 73   27 20 2.4 96.89   -11 Snow
14:00 -5.5 -9.7 72   28 19 9.7 96.89   -12 Snow
15:00 -5.8 -9.8 73   28 20 4.0 96.92   -13 Snow
16:00 -6.4 -9.7 77   27 19 1.6 96.99   -13 Snow
17:00 -6.9 -10.7 74   26 17 4.0 97.08   -13 Snow
18:00 -7.6 -11.2 75   26 17 1.8 97.22   -14 Snow
19:00 -8.8 -12.4 75   28 17 1.9 97.40   -16 Snow
20:00 -9.0 -12.7 74   28 17 5.6 97.52   -16 Snow
21:00 -9.0 -12.9 73   28 22 6.4 97.60   -17 Snow
22:00 -9.5 -13.6 72   29 17 5.6 97.65   -17 Snow
23:00 -9.7 -13.4 74   27 19 3.2 97.72   -17 Snow

Notes on Data Quality.

Legend

  • E = Estimated
  • M = Missing
  • NA = Not Available*
  • [empty] = Indicates an unobserved value
Date modified: